Weather History for Pensacola, FL

Change the Weather History Date:

Sunday, February 26, 2012

  Actual Average Record
Temperature  
Mean Temperature 56 °F 57 °F  
Max Temperature 60 °F 66 °F 82 °F (1972)
Min Temperature 52 °F 48 °F 26 °F (1967)
Degree Days  
Heating Degree Days 9 9  
Month to date heating degree days 173 282  
Since 1 July heating degree days 868 1293  
Cooling Degree Days 0 0  
Month to date cooling degree days 17 0  
Year to date cooling degree days 48 6  
Growing Degree Days 6 (Base 50)    
Moisture  
Dew Point 40 °F    
Average Humidity 62    
Maximum Humidity 83    
Minimum Humidity 41    
Precipitation  
Precipitation T in 0.18 in 2.01 in (2003)
Month to date precipitation 5.68 4.69  
Year to date precipitation 8.17 9.32  
Snow  
Snow 0.00 in 0.00 in - ()
Month to date snowfall 0.0 0.0  
Since 1 July snowfall 0.0 0.0  
Snow Depth 0.00 in    
Sea Level Pressure  
Sea Level Pressure 30.30 in    
Wind  
Wind Speed 8 mph (East)    
Max Wind Speed 16 mph    
Max Gust Speed 23 mph    
Visibility 9 miles    
Events Rain    
T = Trace of Precipitation, MM = Missing Value Source: NWS Daily Summary

Daily Weather History Graph

Daily Weather History Graph

Search for Another Location

Airport:

Trip Planner

Search our weather history database for the weather conditions in past years. The results will help you decide how hot, cold, wet, or windy it might be!

Date:

Astronomy

Feb. 26, 2012 Rise Set
Actual Time 6:18 AM CST 5:45 PM CST
Civil Twilight 5:54 AM CST 6:09 PM CST
Nautical Twilight 5:26 AM CST 6:37 PM CST
Astronomical Twilight 4:58 AM CST 7:05 PM CST
Moon 8:37 AM CST (2/26) 10:16 PM CST (2/26)
Length of Visible Light 12h 14m
Length of Day
11h 26m
Waxing Crescent, 21% of the Moon is Illuminated
Feb 26
Waxing Crescent
Feb 29
First Quarter
Mar 8
Full
Mar 14
Last Quarter
Mar 22
New

Hourly Weather History & Observations

Time (CST) Temp. Dew Point Humidity Pressure Visibility Wind Dir Wind Speed Gust Speed Precip Events Conditions
12:53 AM 53.1 °F 32.0 °F 45% 30.28 in 10.0 mi East 4.6 mph - 0.00 in Rain Light Rain
1:53 AM 54.0 °F 30.9 °F 41% 30.28 in 10.0 mi East 4.6 mph - 0.00 in   Overcast
2:53 AM 53.1 °F 32.0 °F 45% 30.28 in 10.0 mi Calm Calm - N/A   Mostly Cloudy
3:53 AM 53.1 °F 34.0 °F 48% 30.27 in 10.0 mi ENE 4.6 mph - N/A   Overcast
4:53 AM 52.0 °F 32.0 °F 47% 30.30 in 10.0 mi NE 4.6 mph - N/A   Overcast
5:53 AM 52.0 °F 33.1 °F 49% 30.30 in 10.0 mi NE 3.5 mph - N/A   Overcast
6:53 AM 53.1 °F 30.9 °F 43% 30.32 in 10.0 mi East 6.9 mph - N/A   Overcast
7:53 AM 53.6 °F 33.8 °F 47% 30.32 in 10.0 mi East 9.2 mph - N/A   Overcast
8:53 AM 54.0 °F 34.0 °F 47% 30.35 in 10.0 mi East 12.7 mph 18.4 mph N/A   Overcast
9:53 AM 55.0 °F 36.0 °F 49% 30.37 in 10.0 mi ESE 13.8 mph - N/A   Overcast
10:53 AM 59.0 °F 42.1 °F 53% 30.35 in 10.0 mi East 13.8 mph 19.6 mph N/A   Mostly Cloudy
11:53 AM 57.9 °F 42.1 °F 56% 30.33 in 10.0 mi ESE 15.0 mph 20.7 mph N/A   Overcast
12:53 PM 57.9 °F 42.1 °F 56% 30.31 in 10.0 mi ESE 12.7 mph - N/A   Overcast
1:53 PM 57.0 °F 42.1 °F 57% 30.30 in 10.0 mi ESE 10.4 mph - N/A   Overcast
2:53 PM 57.0 °F 39.9 °F 53% 30.29 in 10.0 mi East 6.9 mph - N/A   Overcast
3:53 PM 55.9 °F 39.9 °F 55% 30.28 in 10.0 mi ENE 6.9 mph - N/A   Overcast
4:49 PM 55.4 °F 39.2 °F 54% 30.28 in 2.0 mi ENE 6.9 mph - N/A   Haze
4:53 PM 55.0 °F 39.9 °F 57% 30.29 in 2.0 mi East 8.1 mph - N/A   Haze
5:17 PM 55.4 °F 41.0 °F 58% 30.28 in 4.0 mi East 6.9 mph - N/A   Haze
5:53 PM 55.0 °F 42.1 °F 62% 30.29 in 10.0 mi ENE 8.1 mph - N/A   Overcast
6:21 PM 53.6 °F 42.8 °F 67% 30.28 in 10.0 mi ENE 5.8 mph - N/A   Overcast
6:53 PM 54.0 °F 43.0 °F 66% 30.28 in 10.0 mi ENE 8.1 mph - N/A   Overcast
7:53 PM 53.1 °F 45.0 °F 74% 30.30 in 10.0 mi East 8.1 mph - N/A   Overcast
8:06 PM 53.6 °F 46.4 °F 77% 30.29 in 10.0 mi East 10.4 mph - N/A   Overcast
8:46 PM 53.6 °F 46.4 °F 77% 30.30 in 10.0 mi East 10.4 mph - N/A   Overcast
8:53 PM 53.1 °F 46.9 °F 80% 30.30 in 10.0 mi East 10.4 mph - N/A   Overcast
9:53 PM 52.0 °F 46.9 °F 83% 30.30 in 10.0 mi ENE 6.9 mph - N/A   Overcast
10:53 PM 52.0 °F 46.9 °F 83% 30.30 in 10.0 mi ENE 5.8 mph - N/A   Overcast
11:53 PM 52.0 °F 48.0 °F 86% 30.29 in 10.0 mi Variable 4.6 mph - N/A   Overcast